Probability
0 0 0 0 0 0 0 0 0 0 0 0 0 0 0 0 0 0 0 0 0 0 0 0 0 0 0 0 1 3 7 8 8 6 3 1 0 0 0 0 0 0 0 0
0 0 0 0 0 0 0 0 0 0 0 0 0 0 0 0 0 0 0 0 0 0 0 1 2 1 0 1 2 6 14 22 24 19 9 2 0 0 0 0 0 0 0 0
0 0 0 0 0 0 0 0 0 0 0 0 0 0 0 0 0 0 0 0 0 0 0 4 8 5 3 8 16 23 37 53 53 36 15 3 1 0 0 0 0 0 0 0
0 0 0 0 0 0 0 0 0 0 0 0 0 0 0 0 0 0 0 0 0 0 0 9 20 22 22 36 51 61 71 79 68 38 14 4 2 0 0 0 0 0 0 0
0 0 0 0 0 0 0 0 0 0 0 0 0 0 0 0 0 0 0 0 0 0 0 11 28 37 43 59 75 85 89 84 60 28 8 2 1 0 0 0 0 0 0 0
0 0 0 0 0 0 0 0 0 0 0 0 0 0 0 0 0 0 0 0 0 0 0 7 21 29 33 43 55 63 65 61 43 21 7 1 0 0 0 0 0 0 0 0
0 0 0 0 0 0 0 0 0 0 0 0 0 0 0 0 0 0 0 0 0 0 0 2 7 10 9 11 16 21 24 26 23 16 7 1 0 0 0 0 0 0 0 0
0 0 0 0 0 0 0 0 0 0 0 0 0 0 0 0 0 0 0 0 0 0 0 0 0 1 1 0 0 1 2 4 6 5 3 0 0 0 0 0 0 0 0 0
0 0 0 0 0 0 0 0 0 0 0 0 0 0 0 0 0 0 0 0 0 0 0 0 0 0 0 0 1 0 0 0 0 0 0 0 0 0 0 0 0 0 0 0
0 0 0 0 0 0 0 0 0 0 0 0 0 0 0 0 0 0 0 0 0 0 0 0 0 0 0 0 0 0 0 0 0 0 0 0 0 0 0 0 0 0 0 0
0 0 0 0 0 0 0 0 0 0 0 0 0 0 0 0 0 0 0 0 0 0 0 0 0 0 0 0 0 0 0 0 0 0 0 0 0 0 0 0 0 0 0 0
0 0 0 0 0 0 0 0 0 0 0 0 0 0 0 0 0 0 0 0 0 0 0 0 0 0 0 0 0 0 0 0 0 0 0 0 0 0 0 0 0 0 0 0
0 0 0 0 0 0 0 0 0 0 0 0 0 0 0 0 0 0 0 0 0 0 0 0 0 0 0 0 0 0 0 0 0 0 0 0 0 0 0 0 0 0 0 0
0 0 0 0 0 0 0 0 0 0 0 0 0 0 0 0 0 0 0 0 0 0 0 0 0 0 0 0 0 0 0 0 0 0 0 0 0 0 0 0 0 0 0 0
0 0 0 0 0 0 0 0 0 0 0 0 0 0 0 0 0 0 0 0 0 0 0 0 0 0 0 0 0 0 0 0 0 0 0 0 0 0 0 0 0 0 0 0
0 0 0 0 0 0 0 0 0 0 0 0 0 0 0 0 0 0 0 0 0 0 0 0 0 0 0 0 0 0 0 0 0 0 0 0 0 0 0 0 0 0 0 0
0 0 0 0 0 0 0 0 0 0 0 0 0 0 0 0 0 0 0 0 0 0 0 0 0 0 0 0 0 0 0 0 0 0 0 0 0 0 0 0 0 0 0 0
0 0 0 0 0 0 0 0 0 0 0 0 0 0 0 0 0 0 0 0 0 0 0 0 0 0 0 0 0 0 0 0 0 0 0 0 0 0 0 0 0 0 0 0
0 0 0 0 0 0 0 0 0 0 0 0 0 0 0 0 0 0 0 0 0 0 0 0 0 0 0 0 0 0 0 0 0 0 0 0 0 0 0 0 0 0 0 0
0 0 0 0 0 0 0 0 0 0 0 0 0 0 0 0 0 0 0 0 0 0 0 0 0 0 0 0 0 0 0 0 0 0 0 0 0 0 0 0 0 0 0 0
0 0 0 0 0 0 0 0 0 0 0 0 0 0 0 0 0 0 0 0 0 0 0 0 0 0 0 0 0 0 0 0 0 0 0 0 0 0 0 0 0 0 0 0
0 0 0 0 0 0 0 0 0 0 0 0 0 0 0 0 0 0 0 0 0 0 0 0 0 0 0 0 0 0 0 0 0 0 0 0 0 0 0 0 0 0 0 0
0 0 0 0 0 0 0 0 0 0 0 0 0 0 0 0 0 0 0 0 0 0 0 0 0 0 0 0 0 0 0 0 0 0 0 0 0 0 0 0 0 0 0 0
0 0 0 0 0 0 0 0 0 0 0 0 0 0 0 0 0 0 0 0 0 0 0 0 0 0 0 0 0 0 0 0 0 0 0 0 0 0 0 0 0 0 0 0
0 0 0 0 0 0 0 0 0 0 0 0 0 0 0 0 0 0 0 0 0 0 0 0 0 0 0 0 0 0 0 0 0 0 0 0 0 0 0 0 0 0 0 0
0 0 0 0 0 0 0 0 0 0 0 0 0 0 0 0 0 0 0 0 0 0 0 0 0 0 0 0 0 0 0 0 0 0 0 0 0 0 0 0 0 0 0 0
Wind_Speed
3 3 1 3 2 1 1 0 3 3 2 3 4 9 12 11 11 12 9 7 9 8 9 9 10 11 15 14 13 14 13 10 10 7 5 5 4 3 2 3 4 4 5 4
4 2 4 1 3 3 2 1 3 3 1 2 5 7 5 9 9 12 13 13 12 10 9 13 12 9 11 15 15 15 15 14 12 9 5 4 4 3 3 3 4 4 4 3
2 4 5 2 2 2 1 2 3 3 2 3 4 4 6 6 7 13 15 13 14 13 12 12 13 9 7 11 13 12 13 12 7 5 6 5 5 3 3 2 2 4 5 5
4 9 10 8 5 1 4 3 1 1 2 3 3 5 5 8 11 17 17 17 16 16 15 10 10 6 3 4 5 7 8 10 10 7 3 4 5 4 4 3 3 3 4 4
5 7 10 10 7 4 2 4 3 2 1 3 1 2 6 7 11 18 17 16 15 15 14 10 8 5 6 6 6 6 8 9 10 6 3 2 2 3 2 2 3 3 3 4
4 4 5 4 5 5 2 3 3 3 2 4 4 3 4 4 9 15 16 15 14 14 14 11 7 7 9 10 11 10 9 16 12 2 3 3 2 3 4 4 4 3 3 3
8 5 5 6 7 7 9 5 4 3 3 6 3 3 0 5 5 9 13 14 14 12 12 11 9 5 5 7 11 12 10 13 8 1 5 4 4 6 6 5 4 4 3 2
4 8 7 7 4 4 3 2 1 3 4 5 2 4 5 2 6 10 11 12 13 12 10 6 6 6 4 5 7 9 6 4 4 4 6 6 6 3 3 3 3 3 2 2
3 5 4 3 3 5 6 3 1 2 5 5 4 2 4 13 16 18 17 16 14 12 11 7 6 4 6 3 5 13 15 11 7 8 5 4 5 3 2 0 2 3 3 3
1 5 3 4 5 6 2 3 4 3 4 5 2 2 7 16 18 19 19 18 16 12 9 8 7 7 9 9 9 10 7 7 6 1 8 9 7 6 4 3 2 2 4 4
2 1 5 4 3 4 5 3 2 2 4 3 2 1 7 11 12 14 15 15 14 13 11 5 6 9 9 10 10 7 7 9 5 9 11 11 4 4 3 2 1 2 4 4
1 3 3 2 1 3 3 4 4 2 4 3 1 2 6 9 11 13 15 15 13 12 9 1 6 3 1 1 2 2 3 4 10 8 9 8 6 5 4 4 2 2 3 4
2 4 5 7 6 5 8 12 2 2 3 3 2 4 7 14 14 16 16 15 13 11 7 5 3 4 4 4 3 2 5 13 13 10 7 4 4 2 2 2 2 1 2 3
5 5 4 3 2 8 11 17 17 9 4 3 4 7 12 18 18 19 18 17 16 14 13 11 7 3 2 3 3 4 8 6 4 5 3 5 3 4 5 4 2 2 2 2
5 4 3 4 4 8 16 17 17 16 12 6 9 9 11 16 15 14 15 15 13 13 13 12 9 9 8 9 10 10 6 2 5 4 6 5 4 5 5 3 3 4 3 2
3 3 2 2 4 4 11 17 16 14 14 11 11 8 15 15 10 13 15 15 13 11 11 11 11 9 9 8 8 7 6 5 5 3 3 5 5 3 3 4 5 4 3 2
3 3 2 1 4 2 7 12 14 10 10 9 8 10 17 16 13 11 12 14 12 10 9 9 10 10 9 9 9 8 7 7 8 8 7 5 3 4 5 5 5 6 5 4
3 3 3 1 3 5 4 6 8 7 7 10 9 9 9 10 9 6 11 12 11 9 6 6 6 6 6 7 8 8 9 9 9 8 8 9 9 9 8 7 7 7 6 6
3 5 4 3 3 0 4 4 6 5 6 10 12 14 15 15 7 6 15 12 7 6 6 5 5 4 3 4 4 4 5 5 5 5 5 6 6 7 8 7 6 6 5 6
4 5 5 3 3 1 4 2 1 1 1 6 9 11 13 12 9 10 15 14 10 6 3 3 5 6 6 6 5 6 5 5 6 6 6 6 6 7 6 5 4 4 4 4
4 5 4 3 1 3 4 2 0 1 2 5 6 7 8 5 3 10 13 11 8 6 5 5 5 4 4 4 5 6 6 6 5 5 5 5 4 4 4 4 4 4 5 5
1 2 2 3 2 4 4 2 4 4 3 3 4 3 5 7 8 8 9 9 8 6 4 3 3 4 4 3 2 2 2 2 2 2 3 4 4 4 4 4 4 5 5 5
2 4 3 5 5 3 3 3 4 4 3 3 3 6 4 5 6 8 8 8 8 7 5 3 3 3 3 2 1 2 2 1 1 1 2 3 3 3 3 4 4 4 4 5
3 2 2 2 4 3 3 3 4 4 4 5 4 5 3 4 6 7 7 7 7 6 5 4 3 4 4 4 2 2 1 2 2 1 0 1 2 3 3 3 3 3 3 4
5 4 3 3 3 2 5 6 5 4 4 3 3 2 3 4 5 5 6 7 6 6 5 5 4 5 6 5 4 3 2 3 3 1 0 1 2 2 1 2 2 2 2 2
7 8 8 8 9 8 7 8 6 4 2 1 2 4 5 4 6 6 6 7 6 7 7 7 7 7 7 6 5 3 2 3 2 1 1 1 1 2 2 1 2 2 2 2
Wind_Direction
26 39 302 250 208 90 98 293 287 292 356 338 319 308 320 357 2 348 335 303 293 292 288 288 291 254 223 202 194 181 177 177 166 163 160 158 177 168 172 189 189 194 212 204
31 349 294 35 71 72 66 334 285 287 33 347 327 315 343 16 22 6 356 349 334 314 311 302 294 279 231 211 197 184 179 177 180 181 161 135 131 139 140 156 180 190 198 201
81 336 346 70 62 37 302 231 267 296 358 18 341 321 353 352 357 359 1 354 354 341 316 309 303 273 230 215 206 191 181 167 166 140 109 83 77 72 94 140 186 191 188 181
44 22 30 37 17 3 302 320 297 345 8 320 15 304 338 334 345 1 358 358 356 350 335 311 323 306 238 207 162 153 157 142 120 100 117 152 149 159 166 169 184 175 178 184
26 37 37 32 350 348 330 34 48 38 44 312 294 263 312 352 355 354 350 358 357 349 345 343 351 13 49 62 75 95 106 86 88 107 159 230 116 124 139 146 169 181 188 196
12 15 42 357 335 360 8 359 15 24 56 270 230 206 311 358 335 337 342 353 353 350 351 351 352 36 43 44 47 50 70 82 65 350 213 174 145 170 180 186 195 193 205 209
344 358 1 7 360 357 7 8 333 307 216 236 197 162 318 318 331 339 339 347 345 350 355 1 14 20 75 64 58 45 48 73 81 316 257 146 182 205 203 191 189 192 193 178
342 322 1 10 30 313 318 70 234 278 280 293 249 207 172 331 331 345 343 343 347 353 355 360 18 42 83 124 119 100 85 91 60 343 254 168 185 196 201 188 184 188 163 169
351 293 340 20 39 33 329 348 244 241 292 287 284 353 344 351 348 348 346 345 344 339 342 340 349 13 82 89 173 163 158 169 181 245 229 93 68 58 37 103 197 189 172 169
193 285 314 333 25 15 39 333 11 356 288 274 278 61 344 348 340 339 340 337 332 329 334 336 4 16 59 62 61 91 122 210 217 222 58 64 75 104 145 167 184 197 194 184
60 11 312 1 39 328 352 2 312 239 245 277 271 59 342 332 328 332 331 329 328 330 329 342 46 32 32 58 65 86 203 204 133 97 85 77 80 130 160 187 212 225 210 180
14 101 304 311 347 50 2 291 265 263 274 282 273 258 292 332 342 345 338 334 341 344 326 157 129 112 228 141 71 339 271 124 110 101 110 140 182 167 191 205 198 285 271 210
16 44 5 359 1 20 352 2 44 251 281 335 360 319 336 353 351 347 342 345 359 359 21 86 152 216 229 249 260 235 126 127 139 144 144 195 231 224 275 345 40 17 310 276
76 76 79 103 34 9 12 24 31 36 2 4 353 319 350 350 345 341 345 350 0 9 31 50 57 53 356 347 15 69 102 133 131 112 182 204 232 301 326 32 38 29 30 354
67 88 91 148 158 52 34 20 23 35 21 9 336 344 349 340 337 340 346 356 17 21 26 30 35 35 27 36 39 51 72 349 343 347 310 341 354 331 334 33 28 24 38 26
56 116 142 217 252 4 27 18 13 24 21 360 354 358 332 335 351 348 353 359 8 14 14 14 21 24 24 32 40 38 30 359 21 36 325 334 343 349 4 14 13 8 9 314
43 94 98 314 304 331 8 358 354 11 24 358 360 334 324 333 344 345 355 359 359 359 2 7 11 14 8 18 27 27 19 24 33 32 22 6 0 22 21 11 2 4 359 345
119 101 88 356 8 47 320 335 345 358 18 6 350 339 333 321 305 326 11 2 353 344 358 14 15 16 6 17 17 17 22 24 28 29 26 22 32 35 31 31 25 18 8 5
82 130 94 69 72 53 322 356 5 360 350 355 351 350 351 343 342 357 1 356 338 332 350 355 2 27 20 29 22 46 35 30 38 37 37 36 45 48 40 34 25 12 14 23
38 55 88 89 95 154 258 290 331 97 330 335 347 344 348 349 26 341 333 336 335 341 349 6 17 19 15 7 5 38 26 24 23 20 24 24 32 41 35 26 27 12 18 19
10 30 67 89 109 248 246 265 108 140 274 318 331 327 340 346 289 290 312 326 338 335 349 16 15 6 346 340 14 26 13 9 352 8 20 18 28 44 32 31 29 22 22 22
185 139 159 139 159 231 203 174 178 211 266 287 302 305 321 307 305 315 323 331 341 338 339 359 351 347 341 349 39 25 349 312 310 17 40 25 21 24 30 47 38 33 30 28
203 195 187 195 216 235 203 205 203 190 233 260 277 296 302 305 313 317 320 328 331 327 315 326 346 330 337 356 26 21 331 280 282 31 35 18 10 18 28 42 34 33 33 32
252 195 163 240 235 226 245 246 240 225 236 264 271 282 298 303 311 314 323 329 328 321 324 319 334 343 332 342 334 272 235 171 165 161 347 2 2 4 28 39 41 42 23 22
213 173 171 229 253 256 248 233 238 251 262 282 307 290 303 318 324 318 316 314 315 318 324 334 326 310 295 303 307 279 230 166 161 161 210 348 355 349 20 83 59 52 37 21
199 177 168 207 196 175 205 216 218 227 238 268 345 347 337 332 319 317 313 313 321 327 328 334 324 303 291 292 294 296 241 200 183 176 110 13 351 357 0 68 98 75 45 15